Terminal Aerodrome Forecast
Issued by NWS Mt. Holly, NJ

Home | Current Version | Previous Version | Text Only | Print | Product List | Glossary On
Versions: 1 2 3 4 5 6 7 8 9 10 11 12 13 14 15 16 17 18 19 20 21
000
FTUS41 KPHI 031142
TAFACY
TAF
KACY 031142Z 0312/0412 28012G20KT P6SM BKN060
     FM031500 31018G30KT P6SM BKN050
     FM032200 32012KT P6SM SCT050
     FM040400 31006KT P6SM FEW050=

USA.gov is the U.S. government's official web portal to all federal, state and local government web resources and services.